Location: Oklahoma City
(35.4680°N, 97.5160°W)
Time: 15:04:37
(UTC-06:00)

ISS - Visible Passes

Search period start: 19 December 2014 00:00
Search period end: 29 December 2014 00:00
Orbit: 404 x 415 km, 51.6° (Epoch: 19 December)

Date Brightness Start Highest point End Pass type
(mag) Time Alt. Az. Time Alt. Az. Time Alt. Az.
23 Dec -1.3 18:24:41 10° N 18:26:29 14° NNE 18:26:29 14° NNE visible
24 Dec -1.7 19:09:17 10° NW 19:11:00 27° NNW 19:11:00 27° NNW visible
25 Dec -2.3 18:18:31 10° NNW 18:21:26 29° NE 18:22:57 20° E visible
25 Dec 0.0 19:55:14 10° WNW 19:55:46 13° W 19:55:46 13° W visible
26 Dec -2.4 19:03:46 10° WNW 19:06:56 47° SW 19:08:06 31° S visible
27 Dec -3.4 18:12:35 10° NW 18:15:52 79° NE 18:19:07 10° SE visible
28 Dec -0.2 18:58:51 10° W 19:00:58 16° SW 19:03:04 10° S visible
